This is the latest recevied weather packets stored in our database for station/object K2NV. If no packets are shown the sender has not sent any weather packets the latest 1 day(s).
| Time | Temp. | Humidity | Pressure | Rain* | Wind** | Luminosity | Snow |
|---|---|---|---|---|---|---|---|
| 1777987456 | 16.67° C | 71% | 1001.5 hPa | 0 mm | 6.26 m/s, 248° | - | - |
| 1777987158 | 16.67° C | 71% | 1001.4 hPa | 0 mm | 7.15 m/s, 240° | - | - |
| 1777986557 | 16.11° C | 74% | 1001.2 hPa | 0 mm | 5.36 m/s, 247° | - | - |
| 1777986257 | 16.11° C | 74% | 1001.2 hPa | 0 mm | 6.26 m/s, 249° | - | - |
| 1777985958 | 16.11° C | 74% | 1001.1 hPa | 0 mm | 4.47 m/s, 245° | - | - |
| 1777985657 | 15.56° C | 74% | 1001.2 hPa | 0 mm | 4.47 m/s, 240° | - | - |
| 1777985356 | 16.11° C | 74% | 1001.3 hPa | 0 mm | 4.47 m/s, 259° | - | - |
| 1777985057 | 16.11° C | 73% | 1001.3 hPa | 0 mm | 5.36 m/s, 247° | - | - |
| 1777984759 | 16.11° C | 73% | 1001.3 hPa | 0 mm | 7.15 m/s, 246° | - | - |
| 1777984457 | 15.56° C | 74% | 1001.1 hPa | 0 mm | 5.81 m/s, 241° | - | - |
| 1777984156 | 15.56° C | 74% | 1001.2 hPa | 0 mm | 4.47 m/s, 244° | - | - |
| 1777983857 | 15.56° C | 73% | 1001 hPa | 0 mm | 4.02 m/s, 249° | - | - |
| 1777983557 | 16.11° C | 73% | 1000.8 hPa | 0 mm | 4.47 m/s, 252° | - | - |
| 1777983258 | 15.56° C | 73% | 1000.8 hPa | 0 mm | 4.47 m/s, 245° | - | - |
| 1777982956 | 15.56° C | 73% | 1000.8 hPa | 0 mm | 3.13 m/s, 247° | - | - |
| 1777982658 | 15.56° C | 73% | 1000.9 hPa | 0 mm | 4.02 m/s, 248° | - | - |
| 1777982356 | 16.11° C | 73% | 1000.8 hPa | 0 mm | 5.36 m/s, 243° | - | - |
| 1777982059 | 16.11° C | 72% | 1000.7 hPa | 0 mm | 5.36 m/s, 242° | - | - |
| 1777981758 | 16.11° C | 72% | 1000.6 hPa | 0 mm | 3.13 m/s, 242° | - | - |
| 1777981457 | 16.11° C | 72% | 1000.5 hPa | 0 mm | 6.26 m/s, 247° | - | - |
| 1777981158 | 16.11° C | 72% | 1000.5 hPa | 0 mm | 3.13 m/s, 239° | - | - |
| 1777980558 | 16.11° C | 73% | 1000.4 hPa | 0 mm | 4.02 m/s, 223° | - | - |
| 1777980258 | 16.11° C | 73% | 1000.4 hPa | 0 mm | 4.02 m/s, 234° | - | - |
| 1777979957 | 16.11° C | 73% | 1000.4 hPa | 0 mm | 4.02 m/s, 248° | - | - |
| 1777979655 | 16.11° C | 73% | 1000.3 hPa | 0 mm | 4.02 m/s, 240° | - | - |
* Rain latest hour (hover to see other rain measurements)
** Current wind speed in m/s (hover to see current wind gust speed)